Location: McFarlands Corners
(41.4117°N, 81.3382°W)
Time: 12:18:57
(UTC+00:00)

Transit 4A - Pass Details

Date: 18 February 2026
Orbit: 863 x 978 km, 66.8° (Epoch: 17 March)

Event Time Altitude Azimuth Distance (km) Brightness Sun altitude
Rises 09:02:49 0° 210° (SSW) 3,439 - -36.6°
Reaches altitude 10° 09:05:15 10° 211° (SSW) 2,514 - -36.2°
Maximum altitude 09:11:04 84° 299° (WNW) 897 - -35.1°
Exits shadow 09:13:38 36° 25° (NNE) 1,377 9.0 -34.7°
Drops below altitude 10° 09:17:06 10° 29° (NNE) 2,594 10.7 -34.0°
Sets 09:19:39 0° 30° (NNE) 3,557 11.5 -33.6°
